DELTA 1 DEB, 2224

Orbit data source: Space-Track

DELTA 1 DEB, 2224 is space debris in SSO originally from a launch on Mon, 28 Feb 1966 UTC launched from the Air Force Eastern Test Range (AFETR). Debris objects in space refer to the collection of defunct objects orbiting the Earth. Examples of debris include non-operational satellites, rocket bodies, and fragments generated from explosions, collisions, or faulty payload assembly.

Loading next visibility...
Identifier
2224, 1966-016D
Orbit
SSO
Country
Flag of USUS
Related business
Manufacturer
Unknown
Mission
Spacecraft
Bus & Motor
Unknown
Mass
1 kg wet, 1 kg dry
Launch date (UTC)
1966-02-28 (61 years ago)
Launch vehicle
Unknown
Launch site
Air Force Eastern Test Range (AFETR)
Object type
Payload
Rocket body
Debris
Shape & HBR
DISK + CABLE, 1.1 m
Radar Cross Section
Medium (>0.1 m² and <1 m²)

Expand to show TLE details & history
Last TLE update: 9 hours ago

TLE from 9 hours ago
0 DELTA 1 DEB
1 02224U 66016D   26255.23426404 -.00000007  00000-0  20489-3 0  9998
2 02224 101.1466 169.3420 0138489  52.6558 100.4512 12.52180068756790
Epoch: 2026-09-12T05:37Z
TLE epoch observation values (Epoch: 2026-09-12T05:37:20.413Z)
Latitude
24.85415°
Longitude
-81.0283°
Altitude
1,479.253 km
Speed
7.116 km/s
True Right ascension
23h 38m 12s
True Declination
24° 44' 07"
Sunlit
Object was in full shadow at epoch
Visualization orbit readout
Latitude
Unknown
Longitude
Unknown
Altitude
Unknown
Speed
Unknown
Apparent Right ascension
Unknown
Apparent Declination
Unknown
Sunlit
N/A
Visualization observer readout
Local Sidereal Time
06:41:36
Azimuth
Unknown
Elevation
Unknown
Doppler factor
Unknown
Orbital elements
Apogee altitude
1,561.349 km
Perigee altitude
1,344.447 km
Semi-major axis
7,831.035 km
Eccentricity
0.01385
Inclination
101.1466°
RAAN
169.342°
Arg. of periapsis
52.6558°
True anomaly
102.00676°
Mean anomaly
100.4512°
Eccentric anomaly
101.22949°
Mean motion
3.13195 °/min
Orbital period
114.94 mins
BSTAR
0.00020489
Loading maneuver chart data...
Computing Atmospheric mass density...
Loading historical data...
Loading historical data...
Loading historical data...
Loading historical data...
Loading historical data...
Loading historical data...
Loading historical data...
Other satellites on launch #16 in the year 1966 (1966-02-28 UTC)

Documentation

Showing up to 5 results
|